Imrali, Turkey

6:07 AM +03 on January 18, 2018 (GMT +0300)
Imrali

Weather History for 17060 - January, 2013

Change the Weather History Date:

Monday, January 14, 2013

  Actual Average Record
Temperature  
Mean Temperature 43 °F -  
Max Temperature 48 °F 46 °F - ()
Min Temperature 38 °F 37 °F - ()
Degree Days  
Heating Degree Days 22    
Moisture  
Dew Point 36 °F    
Average Humidity 73    
Maximum Humidity 87    
Minimum Humidity 43    
Precipitation  
Precipitation 0.00 in - - ()
Sea Level Pressure  
Sea Level Pressure 30.34 in    
Wind  
Wind Speed 4 mph ()    
Max Wind Speed 8 mph    
Max Gust Speed -    
Visibility 6.3 miles    
Events      
T = Trace of Precipitation, MM = Missing Value Source: Averaged Metar Reports

Daily Weather History Graph

Daily Weather History Graph

Search for Another Location

Airport or City:

Trip Planner

Search our weather history database for the weather conditions in past years. The results will help you decide how hot, cold, wet, or windy it might be!

Date:

Astronomy

Jan. 14, 2013 Rise Set
Actual Time 7:27 AM EET 5:00 PM EET
Civil Twilight 6:57 AM EET 5:30 PM EET
Nautical Twilight 6:23 AM EET 6:04 PM EET
Astronomical Twilight 5:50 AM EET 6:37 PM EET
Moon 8:48 AM EET (1/14) 8:25 PM EET (1/14)
Length of Visible Light 10h 33m
Length of Day
9h 32m
Waxing Crescent, 9% of the Moon is Illuminated
Jan 14
Waxing Crescent
Jan 19
First Quarter
Jan 27
Full
Feb 3
Last Quarter
Feb 10
New

Hourly Weather History & Observations

Time (EET) Temp. Windchill Dew Point Humidity Pressure Visibility Wind Dir Wind Speed Gust Speed Precip Events Conditions
12:20 AM 41.0 °F 39.0 °F 33.8 °F 76% 30.30 in 6.2 mi NNE 3.5 mph - N/A   Scattered Clouds
12:50 AM 41.0 °F 38.0 °F 33.8 °F 76% 30.30 in 6.2 mi NNE 4.6 mph - N/A   Scattered Clouds
1:20 AM 42.8 °F 39.3 °F 35.6 °F 76% 30.30 in 6.2 mi Variable 5.8 mph - N/A   Scattered Clouds
1:50 AM 41.0 °F 39.0 °F 33.8 °F 76% 30.33 in 6.2 mi North 3.5 mph - N/A   Scattered Clouds
2:00 AM 40 °F - 33 °F 69% 30.35 in 6 mi North 3.5 mph - -   Partly Cloudy
2:20 AM 41.0 °F 39.0 °F 35.6 °F 81% 30.33 in 6.2 mi NNE 3.5 mph - N/A   Scattered Clouds
2:50 AM 39.2 °F 35.9 °F 35.6 °F 87% 30.33 in 6.2 mi North 4.6 mph - N/A   Scattered Clouds
3:20 AM 41.0 °F - 35.6 °F 81% 30.33 in 6.2 mi Variable 2.3 mph - N/A   Scattered Clouds
3:50 AM 41.0 °F 39.0 °F 35.6 °F 81% 30.33 in 6.2 mi ENE 3.5 mph - N/A   Scattered Clouds
4:20 AM 41.0 °F 38.0 °F 33.8 °F 76% 30.33 in 6.2 mi ENE 4.6 mph - N/A   Scattered Clouds
4:50 AM 41.0 °F 39.0 °F 35.6 °F 81% 30.33 in 6.2 mi ENE 3.5 mph - N/A   Scattered Clouds
5:20 AM 41.0 °F 38.0 °F 35.6 °F 81% 30.33 in 6.2 mi East 4.6 mph - N/A   Scattered Clouds
5:50 AM 41.0 °F 37.1 °F 35.6 °F 81% 30.33 in 6.2 mi East 5.8 mph - N/A   Scattered Clouds
6:20 AM 41.0 °F 37.1 °F 37.4 °F 87% 30.33 in 6.2 mi East 5.8 mph - N/A   Scattered Clouds
6:50 AM 41.0 °F 36.4 °F 37.4 °F 87% 30.33 in 6.2 mi ESE 6.9 mph - N/A   Scattered Clouds
7:20 AM 41.0 °F 36.4 °F 37.4 °F 87% 30.36 in 6.2 mi SE 6.9 mph - N/A   Scattered Clouds
7:50 AM 41.0 °F 38.0 °F 37.4 °F 87% 30.36 in 6.2 mi East 4.6 mph - N/A   Scattered Clouds
8:00 AM 41 °F - 37 °F 80% 30.37 in 6 mi East 4.6 mph - -   Partly Cloudy
8:20 AM 42.8 °F 38.6 °F 37.4 °F 81% 30.36 in 6.2 mi East 6.9 mph - N/A   Scattered Clouds
8:50 AM 44.6 °F 40.2 °F 37.4 °F 76% 30.36 in 6.2 mi ESE 8.1 mph - N/A   Partly Cloudy
9:20 AM 44.6 °F 40.2 °F 37.4 °F 76% 30.39 in 6.2 mi ESE 8.1 mph - N/A   Partly Cloudy
9:50 AM 42.8 °F 38.6 °F 35.6 °F 76% 30.36 in 6.2 mi ESE 6.9 mph - N/A   Partly Cloudy
10:20 AM 44.6 °F 41.4 °F 35.6 °F 71% 30.36 in 6.2 mi ESE 5.8 mph - N/A   Partly Cloudy
10:50 AM 44.6 °F 40.7 °F 35.6 °F 71% 30.39 in 6.2 mi ESE 6.9 mph - N/A   Partly Cloudy
11:20 AM 44.6 °F 42.2 °F 35.6 °F 71% 30.36 in 6.2 mi ESE 4.6 mph - N/A   Partly Cloudy
11:50 AM 46.4 °F 44.3 °F 37.4 °F 71% 30.36 in 6.2 mi SE 4.6 mph - N/A   Partly Cloudy
12:20 PM 46.4 °F 44.3 °F 37.4 °F 71% 30.36 in 6.2 mi SSE 4.6 mph - N/A   Partly Cloudy
12:50 PM 46.4 °F 44.3 °F 37.4 °F 71% 30.36 in 6.2 mi SSE 4.6 mph - N/A   Partly Cloudy
1:20 PM 46.4 °F 45.2 °F 35.6 °F 66% 30.33 in 6.2 mi SSW 3.5 mph - N/A   Partly Cloudy
1:50 PM 46.4 °F 44.3 °F 35.6 °F 66% 30.33 in 6.2 mi South 4.6 mph - N/A   Scattered Clouds
2:00 PM 47 °F - 35 °F 51% 30.36 in 6 mi South 4.6 mph - -   Scattered Clouds
2:20 PM 48.2 °F - 37.4 °F 66% 30.33 in 6.2 mi South 3.5 mph - N/A   Scattered Clouds
2:50 PM 46.4 °F 44.3 °F 35.6 °F 66% 30.33 in 6.2 mi SW 4.6 mph - N/A   Scattered Clouds
3:20 PM 48.2 °F - 35.6 °F 62% 30.33 in 6.2 mi Variable 2.3 mph - N/A   Scattered Clouds
3:50 PM 48.2 °F - 35.6 °F 62% 30.33 in 6.2 mi Variable 1.2 mph - N/A   Scattered Clouds
4:20 PM 46.4 °F - 33.8 °F 62% 30.33 in 6.2 mi SW 2.3 mph - N/A   Scattered Clouds
4:50 PM 44.6 °F 43.1 °F 35.6 °F 71% 30.33 in 6.2 mi South 3.5 mph - N/A   Scattered Clouds
5:20 PM 44.6 °F - 35.6 °F 71% 30.33 in - Variable 2.3 mph - N/A   Clear
5:50 PM 46.4 °F - 35.6 °F 66% 30.33 in - Variable 2.3 mph - N/A   Clear
6:20 PM 42.8 °F - 33.8 °F 70% 30.36 in - Variable 1.2 mph - N/A   Clear
6:50 PM 41.0 °F - 33.8 °F 76% 30.33 in - Variable 2.3 mph - N/A   Clear
7:20 PM 42.8 °F 41.1 °F 33.8 °F 70% 30.33 in - NNW 3.5 mph - N/A   Clear
8:00 PM 48 °F - 33 °F 43% 30.35 in 12 mi East 3.5 mph - -  
8:20 PM 48.2 °F - 32.0 °F 54% 30.33 in - Variable 3.5 mph - N/A   Clear
8:50 PM 46.4 °F - 35.6 °F 66% 30.33 in - Variable 2.3 mph - N/A   Clear
9:20 PM 44.6 °F - 35.6 °F 71% 30.33 in - Variable 2.3 mph - N/A   Clear
9:50 PM 42.8 °F - 33.8 °F 70% 30.33 in - East 1.2 mph - N/A   Clear
10:20 PM 41.0 °F - 33.8 °F 76% 30.33 in - Calm Calm - N/A   Clear
10:50 PM 44.6 °F - 35.6 °F 71% 30.33 in - Variable 2.3 mph - N/A   Clear
11:20 PM 42.8 °F - 35.6 °F 76% 30.33 in - Variable 2.3 mph - N/A   Clear
11:50 PM 42.8 °F - 37.4 °F 81% 30.33 in - Variable 2.3 mph - N/A   Clear